Location: D�rnast
(49.6426°N, 11.9755°E)
Time: 20:39:46
(UTC+00:00)

Cosmos 44 - Pass Details

Date: 24 January 2021
Orbit: 572 x 790 km, 65.1° (Epoch: 02 March)

Event Time Altitude Azimuth Distance (km) Brightness Sun altitude
Rises 18:21:24 0° 229° (SW) 2,995 7.3 -23.5°
Reaches altitude 10° 18:23:40 10° 233° (SW) 2,120 6.5 -23.9°
Maximum altitude 18:28:28 62° 314° (NW) 806 3.7 -24.7°
Enters shadow 18:29:50 44° 12° (NNE) 992 3.9 -24.9°
